STARLINK-1568, 46080

Orbit data source: Space-Track

STARLINK-1568, 46080 is a payload satellite owned by SpaceX/Seattle (US) in LEO that was launched on Fri, 07 Aug 2020 UTC via an FALCON 9 launch vehicle from the Air Force Eastern Test Range (AFETR). Payload-class satellites include a variety of spacecraft equipped with specific instruments for various scientific and technological missions. These include communications satellites like Starlink; space stations such as the ISS; scientific satellites like the Hubble; Earth observation satellites from companies like Planet Labs, Umbra, and HawkEye 360; GPS; miniature CubeSats for education and research; and military/defense satellites.

Loading next visibility...
Identifier
46080, 2020-055BF
Orbit
LEO
Country
Flag of USUS
Related business
Manufacturer
SpaceX/Seattle
Mission
Partially operational Commercial Communications
Bus & Motor
STARLINK, Unknown motor
Mass
260 kg wet, ~248 kg dry
Launch date (UTC)
2020-08-07 (6 years ago)
Launch vehicle
FALCON 9
Launch site
Air Force Eastern Test Range (AFETR)
Object type
Payload
Rocket body
Debris
Shape & HBR
Box + 1 Pan, 10.1 m
Radar Cross Section
13.562 m², Large (>1 m²)

Expand to show TLE details & history
Last TLE update: 10 hours ago

TLE from 10 hours ago
0 STARLINK-1568
1 46080U 20055BF  26192.92620829  .00028907  00000-0  39590-3 0  9993
2 46080  53.0552 155.3645 0003077  99.6353 260.5006 15.57179028329481
Epoch: 2026-07-11T22:13Z
TLE epoch observation values (Epoch: 2026-07-11T22:13:44.396Z)
Latitude
Longitude
-107.9029°
Altitude
397.069 km
Speed
7.673 km/s
True Right ascension
10h 21m 27s
True Declination
0° 00' 00"
Sunlit
Object was in daylight at epoch
Visualization orbit readout
Latitude
Unknown
Longitude
Unknown
Altitude
Unknown
Speed
Unknown
Apparent Right ascension
Unknown
Apparent Declination
Unknown
Sunlit
N/A
Visualization observer readout
Local Sidereal Time
20:48:56
Azimuth
Unknown
Elevation
Unknown
Doppler factor
Unknown
Orbital elements
Apogee altitude
398.187 km
Perigee altitude
394.018 km
Semi-major axis
6,774.239 km
Eccentricity
0.00031
Inclination
53.0552°
RAAN
155.3645°
Arg. of periapsis
99.6353°
True anomaly
260.46583°
Mean anomaly
260.5006°
Eccentric anomaly
260.48321°
Mean motion
3.89271 °/min
Orbital period
92.48 mins
BSTAR
0.0003959
Loading maneuver chart data...
Computing Atmospheric mass density...
Loading historical data...
Loading historical data...
Loading historical data...
Loading historical data...
Loading historical data...
Loading historical data...
Loading historical data...

Documentation

Showing up to 5 results
|